Wind_Speed
12 11 8 7 6 6 6 7 8 9 10 10 10 9 9 8 7 5 4 4 4 4 5 5 5 5 6 7 8 8 8 8 7 7 7 7 6 6 7 9 10 12 16 19 18 17 17 20 20 22 24 25 26 25 25 25 25 25 24 23 23 22 22 21 20 19 18 18 17 16 15 15 14 14 14 15 16 17 18 20 22 22 22 23 24
12 11 8 8 7 6 7 7 8 9 10 10 10 10 9 8 7 6 5 5 5 5 5 5 5 5 6 7 7 8 8 8 7 7 6 6 4 4 6 7 9 11 14 19 20 18 18 20 21 22 24 25 25 25 25 25 25 25 24 23 22 22 22 21 20 19 18 17 16 15 14 13 13 13 13 13 14 16 17 19 21 21 21 22 23
13 11 10 8 7 6 7 7 8 9 9 10 10 10 9 8 7 7 7 6 6 6 6 5 5 5 6 7 7 8 8 8 7 7 6 5 4 3 5 7 8 10 12 16 20 20 19 20 21 22 23 25 25 25 25 25 25 25 24 23 22 22 22 21 20 18 17 16 15 14 13 13 12 12 12 12 13 14 16 18 19 20 20 21 22
13 11 10 8 8 6 6 7 8 8 9 9 10 9 9 8 8 8 7 6 7 6 6 5 5 5 6 6 7 7 7 7 7 6 6 6 4 3 4 6 7 9 11 13 18 20 20 21 22 23 23 25 26 25 25 25 25 25 24 24 23 23 22 21 19 18 17 16 15 14 13 12 11 11 10 11 11 13 15 16 17 18 19 20 21
12 11 10 9 8 6 6 7 8 8 8 9 9 8 8 9 9 8 7 6 6 6 5 5 5 5 5 6 6 6 7 7 7 6 7 7 6 5 6 7 8 9 10 10 15 20 21 21 23 24 24 25 26 26 26 25 25 25 25 24 23 23 22 21 19 18 17 16 14 13 13 12 10 10 9 9 10 12 13 15 16 17 18 19 20
11 10 10 9 7 6 7 8 8 8 9 9 8 8 8 9 9 8 7 6 5 5 5 4 4 4 5 5 5 5 6 7 6 6 7 8 8 8 9 9 10 9 9 9 12 19 22 21 23 24 24 25 26 26 26 25 25 25 25 25 24 23 23 22 20 18 17 16 15 13 12 12 10 9 8 8 9 10 12 13 14 15 17 18 19
11 10 10 9 7 7 8 8 8 9 9 9 8 8 9 9 9 8 7 6 5 4 4 4 4 4 4 4 4 5 5 6 6 6 7 7 8 9 9 9 10 9 8 8 9 16 22 22 22 25 25 25 26 26 26 25 25 25 25 25 25 24 23 22 21 19 17 16 15 13 12 11 10 9 7 7 7 9 10 12 13 14 15 17 18
11 10 10 8 8 9 9 9 9 9 9 8 8 8 9 9 8 7 7 5 5 4 4 4 4 4 4 4 4 5 5 5 6 6 7 7 8 8 8 8 9 9 8 7 7 11 19 23 23 25 26 26 26 26 26 26 25 25 25 25 25 24 24 23 21 19 18 16 14 13 12 11 10 8 7 6 6 7 9 10 12 13 14 16 17
11 10 9 7 8 9 9 9 9 9 9 8 8 8 9 8 8 7 6 5 4 4 3 3 3 4 4 4 4 5 5 5 6 6 6 7 7 7 7 7 8 8 8 7 5 6 13 21 23 24 26 26 26 26 26 26 25 25 25 25 26 25 24 23 22 20 18 16 14 13 12 11 10 9 7 6 5 6 7 9 10 12 13 14 15
10 9 8 7 8 8 9 9 9 9 9 9 8 7 8 7 7 6 5 4 4 3 3 3 4 4 4 4 4 4 5 5 5 5 5 6 6 6 6 6 6 6 6 5 4 3 7 17 23 23 25 26 26 26 26 26 25 25 25 25 26 25 24 23 22 21 19 17 15 12 11 11 9 8 7 5 4 5 6 7 9 10 11 13 14
10 10 9 9 9 8 9 9 9 9 9 9 7 7 7 7 6 5 5 4 4 4 3 4 4 4 3 4 4 4 4 5 4 5 5 5 5 5 4 4 4 4 4 4 3 2 4 12 20 23 24 26 26 25 26 26 26 25 25 25 26 25 25 24 23 22 20 18 16 13 11 11 9 7 6 5 3 3 4 6 7 8 10 11 12
11 11 10 9 9 9 9 9 8 8 8 8 7 7 7 6 6 5 5 4 4 4 3 4 4 3 3 3 4 4 4 4 4 4 4 4 4 4 4 3 3 3 3 4 3 3 3 8 17 22 23 26 27 26 26 26 26 26 25 25 25 26 26 25 23 22 21 19 17 15 14 12 10 8 6 4 2 2 3 4 5 6 8 9 10
11 11 11 9 10 9 8 8 8 8 8 7 7 7 6 5 5 4 4 4 4 3 3 3 3 3 3 3 4 4 3 4 4 3 3 3 3 4 3 3 4 3 3 4 4 3 3 6 15 21 23 25 27 27 27 27 27 26 26 26 26 26 26 25 23 22 22 20 18 17 15 12 9 8 6 4 2 0 2 3 3 4 5 7 9
10 11 10 9 9 8 7 7 8 7 7 6 6 6 5 4 4 4 4 3 3 3 3 3 3 3 3 4 4 4 4 4 4 4 3 3 3 3 3 3 3 4 4 4 4 4 5 6 12 20 23 24 26 27 28 27 27 27 26 26 26 26 26 26 24 23 22 21 19 18 16 12 10 10 8 6 4 3 3 3 3 3 4 5 7
10 10 10 9 8 8 8 8 7 6 6 6 6 5 5 5 4 4 4 4 4 4 4 4 4 4 4 4 4 5 4 4 4 4 3 3 2 2 3 3 3 4 4 4 3 4 5 6 10 18 23 24 25 27 27 28 27 27 27 26 27 27 27 26 25 23 23 22 21 20 17 14 13 12 9 8 7 7 6 5 4 3 3 4 6
10 9 9 8 8 8 8 8 7 7 7 7 7 6 6 5 5 5 5 5 5 6 5 5 5 5 5 5 4 4 4 3 3 3 2 2 2 2 2 2 2 2 2 2 3 4 5 6 9 15 21 24 25 26 27 28 28 27 27 27 27 27 27 27 26 24 24 24 22 22 20 16 16 14 12 11 11 10 8 7 6 5 4 5 6
10 9 9 8 8 8 7 7 7 8 8 8 8 7 7 7 6 7 7 6 7 7 7 6 6 5 5 5 4 3 3 3 3 3 3 4 3 3 3 3 3 2 2 2 2 2 3 5 9 13 19 23 25 26 26 27 28 28 27 27 27 27 28 28 27 26 26 25 23 24 22 19 18 16 14 14 13 12 10 9 8 7 5 5 6
9 8 8 8 8 7 7 7 8 9 9 8 8 7 7 7 7 8 8 8 8 8 9 8 8 7 6 5 5 4 4 4 6 6 5 6 5 5 5 4 4 4 4 3 1 1 1 3 7 12 17 22 24 26 27 27 28 28 27 27 27 27 28 28 27 27 27 25 25 26 23 21 20 18 17 17 15 14 12 11 10 9 7 6 6
9 8 8 7 7 7 8 8 9 10 9 8 8 8 8 8 9 9 9 8 9 10 10 10 10 9 9 9 7 5 6 7 7 8 8 8 8 7 7 7 6 6 6 5 3 2 2 3 5 10 15 20 23 26 27 27 28 28 28 27 27 27 28 27 27 27 27 26 26 26 23 22 21 20 19 19 17 15 14 13 12 11 9 7 7
10 9 9 8 8 8 9 9 10 10 9 9 10 10 10 10 9 9 10 9 9 11 11 11 11 12 13 12 9 8 8 8 8 9 10 10 9 8 8 9 8 7 7 7 6 4 3 2 4 7 12 18 22 25 27 28 28 28 29 28 27 26 27 27 27 28 27 27 28 26 23 23 22 21 21 20 19 17 15 14 13 12 10 9 8
10 9 9 9 9 9 9 10 10 9 9 9 11 12 11 10 9 10 10 10 11 12 12 12 13 13 14 13 10 10 10 10 10 9 10 11 9 9 9 9 9 8 7 7 7 5 3 3 4 6 10 15 21 25 27 28 28 28 29 29 28 27 26 27 27 28 29 29 29 26 24 24 23 22 22 21 20 18 17 15 15 14 12 10 9
9 9 9 9 10 10 9 10 10 9 8 10 12 12 11 10 10 10 10 12 12 13 14 13 14 15 16 14 11 10 10 10 11 10 10 11 10 10 9 9 9 8 7 7 7 6 4 2 3 5 9 14 19 24 27 28 29 29 29 29 28 27 26 25 26 27 28 30 30 27 26 25 24 23 23 22 21 19 18 17 16 15 13 12 10
10 10 9 8 9 10 9 10 11 10 10 11 12 12 10 10 10 10 11 13 14 14 15 14 16 17 15 15 11 8 9 9 8 8 9 11 10 11 10 9 8 6 7 7 7 6 5 4 3 4 7 12 17 21 25 28 29 29 29 29 28 27 26 24 25 25 27 30 30 28 28 26 25 24 24 23 22 21 19 18 17 16 15 13 12
11 10 9 7 7 8 8 9 11 11 11 10 11 11 10 11 10 10 11 12 14 14 14 16 18 17 13 14 11 5 6 7 6 6 8 10 11 11 11 9 7 6 7 7 7 6 5 4 3 3 5 9 14 18 22 24 27 30 30 29 29 28 26 24 25 25 26 29 29 29 29 27 26 26 25 24 23 22 21 20 18 17 16 14 13
11 10 9 8 7 7 7 7 9 9 9 8 9 11 10 11 10 10 11 12 14 13 14 17 19 17 11 11 11 5 4 6 7 7 7 9 10 10 10 9 8 8 7 7 7 7 6 5 3 2 2 5 9 14 19 21 25 29 30 31 30 30 28 25 24 24 27 29 28 28 29 28 28 27 26 25 24 23 22 21 20 18 17 15 14
10 9 8 8 8 7 6 8 9 8 8 8 9 10 11 11 10 11 12 12 14 14 15 18 17 14 10 10 11 7 4 6 7 8 8 8 9 10 10 10 10 9 8 8 7 7 7 5 3 1 1 3 6 11 16 20 23 24 27 31 31 30 29 27 24 23 26 27 27 28 28 28 28 27 27 26 25 25 23 22 21 19 17 16 15
10 9 9 8 8 7 7 8 12 10 9 9 9 11 13 13 12 13 13 13 14 15 15 17 16 12 10 10 11 8 7 9 8 8 9 10 11 11 11 11 11 10 10 9 8 8 8 6 4 3 2 3 6 11 14 18 21 20 24 30 31 31 31 29 25 23 25 26 26 27 28 28 28 28 27 26 26 25 24 23 22 20 18 17 16
10 9 9 8 8 8 7 9 12 13 13 12 9 11 15 14 14 14 12 12 13 15 16 17 15 11 11 12 13 11 10 11 9 9 10 13 15 14 13 12 11 11 11 9 9 10 9 7 6 5 4 4 6 10 13 18 20 20 23 27 31 32 31 30 27 24 24 25 26 26 28 29 28 28 27 26 26 25 24 23 23 21 19 18 17
9 9 9 8 8 8 9 10 11 13 16 17 12 11 14 13 14 14 12 13 14 16 19 17 12 11 13 14 14 13 11 11 10 10 11 13 16 13 11 11 11 12 10 10 11 10 10 10 9 7 6 5 5 7 12 16 19 21 22 24 28 31 31 31 28 24 22 23 24 26 27 29 29 29 28 27 26 25 24 23 23 22 20 19 18
9 9 8 8 8 9 9 10 11 13 16 18 16 14 14 13 12 13 12 13 13 14 17 15 10 11 14 14 14 14 13 12 10 12 13 13 15 12 10 12 12 11 10 10 12 10 10 10 9 8 7 5 5 6 10 14 18 21 22 22 25 29 31 31 29 25 23 23 24 25 27 28 29 29 28 27 26 25 24 24 23 22 21 20 19
10 9 8 8 7 8 8 9 10 12 13 14 15 14 15 13 11 13 13 12 12 13 15 13 11 13 15 16 16 15 13 13 11 12 14 13 14 15 12 13 13 11 9 9 10 10 10 10 10 9 8 7 5 5 7 11 16 19 21 21 23 28 30 30 29 28 25 24 23 25 27 28 29 29 28 28 27 26 25 24 23 22 22 21 20
10 8 7 6 5 5 5 6 8 9 11 12 13 13 13 13 12 12 13 11 11 13 14 12 11 13 15 16 17 15 13 14 13 13 13 13 15 17 14 14 14 11 10 9 8 8 9 10 11 10 9 9 8 7 6 7 12 16 20 21 22 26 30 29 29 29 27 25 23 24 26 27 28 28 28 28 27 26 26 25 24 23 22 22 21
11 8 6 5 4 3 3 4 6 7 9 11 12 12 13 13 13 13 14 13 12 12 13 13 12 12 14 15 17 17 16 16 15 14 14 14 16 18 16 15 14 12 11 11 10 10 9 10 11 11 11 11 11 10 9 8 8 12 17 19 20 24 29 30 29 30 29 27 25 24 25 26 27 27 28 28 28 27 26 26 25 24 23 22 22
11 9 6 5 5 3 4 5 7 7 9 11 12 13 13 14 14 14 14 14 14 13 13 14 12 12 13 14 16 18 19 18 17 15 15 15 17 18 18 17 15 14 13 13 13 12 11 10 10 11 11 11 11 10 11 11 10 9 13 16 18 21 26 30 30 30 30 30 28 25 25 26 26 26 27 27 27 27 27 26 26 25 24 23 22
11 9 7 6 5 4 5 7 8 8 8 9 11 13 14 15 15 15 15 15 14 13 13 14 13 13 12 12 14 16 18 19 18 17 15 16 17 18 20 19 17 17 16 15 14 13 13 12 11 12 12 12 12 10 9 10 11 9 11 14 16 18 21 27 30 31 31 31 31 29 27 27 26 26 27 27 27 28 28 27 27 26 25 24 23
12 9 8 6 5 4 6 7 8 9 9 9 10 12 13 14 15 15 15 15 15 14 14 15 14 14 13 13 13 14 15 16 17 18 18 16 16 18 20 20 19 19 17 14 15 15 13 13 13 13 12 12 12 12 10 9 10 10 11 13 16 18 19 22 27 30 32 31 31 31 30 28 27 25 25 26 27 28 29 28 28 27 27 26 25
12 10 8 7 5 6 7 8 9 10 10 10 10 11 12 13 13 14 15 16 17 17 16 16 16 16 15 14 13 14 14 14 15 16 18 18 17 19 20 19 19 19 18 15 15 15 13 13 14 13 12 12 13 14 13 12 12 12 13 15 16 18 18 19 23 27 31 31 29 29 31 30 29 28 27 26 26 26 27 28 29 29 29 28 26
12 11 9 8 7 7 8 8 9 10 10 10 10 10 11 12 13 13 13 15 16 16 16 16 16 15 14 14 14 14 13 13 14 14 16 17 19 21 21 21 20 19 18 15 15 15 14 15 15 14 14 13 14 14 15 15 14 14 14 15 16 18 19 18 20 23 27 32 32 30 31 31 30 30 29 28 27 27 27 27 28 29 29 29 28
14 12 11 10 9 8 9 9 9 9 10 10 10 10 10 11 11 12 12 13 13 13 14 15 14 14 14 14 15 15 14 14 13 14 14 15 17 19 21 22 21 20 17 15 16 16 16 17 16 15 15 14 15 15 16 16 15 15 14 13 15 18 20 19 19 20 21 27 33 34 33 32 31 30 28 28 29 29 28 28 28 28 28 29 29
15 14 13 11 10 10 10 10 10 9 10 10 10 10 10 10 9 9 10 10 11 10 11 12 12 12 13 15 15 16 15 13 13 14 14 14 16 17 19 19 20 20 18 16 18 18 18 18 17 16 15 15 16 17 17 17 17 17 15 14 13 14 17 17 19 19 19 21 26 31 34 33 32 31 30 28 29 30 28 28 28 28 27 27 28
16 15 14 12 11 11 11 10 10 9 9 10 11 11 11 10 8 8 8 8 8 8 9 10 10 10 12 13 13 14 13 12 12 13 14 14 15 16 17 18 19 20 19 17 18 19 18 19 19 18 17 16 17 18 18 18 18 16 15 14 12 12 14 15 18 21 20 19 20 24 29 32 32 32 32 31 30 30 28 28 28 27 27 26 26
16 15 15 14 12 12 11 10 10 9 8 8 9 11 12 10 7 6 7 7 7 7 7 8 8 8 9 10 11 12 12 11 11 11 13 13 13 14 15 16 17 18 18 17 16 16 17 18 20 20 19 18 16 16 17 17 16 16 15 13 11 11 12 12 15 21 22 19 17 19 22 27 30 31 31 31 30 30 29 29 29 28 27 27 26
17 17 16 15 14 12 11 10 9 9 7 7 8 9 12 10 7 6 6 6 6 6 6 7 7 6 6 7 7 8 9 9 10 10 12 13 13 13 14 15 15 15 17 16 13 13 14 15 18 19 19 16 14 14 14 15 15 16 15 13 11 12 12 11 11 13 21 22 20 18 18 20 25 29 30 30 29 30 30 29 29 29 28 28 27
19 19 18 17 15 12 11 10 10 9 8 8 8 8 11 11 7 5 5 5 6 6 6 6 5 4 4 3 4 5 5 6 7 8 9 11 12 12 13 14 14 14 15 14 12 11 10 11 13 15 16 15 14 14 13 13 14 14 14 13 13 12 12 12 10 9 14 23 23 20 19 19 20 24 27 27 27 28 29 28 29 29 28 28 28
21 21 20 17 15 13 12 10 10 9 9 9 9 8 10 11 7 4 5 5 5 5 4 3 2 2 1 2 2 2 2 3 4 5 6 7 9 11 12 13 14 14 13 12 11 10 9 9 10 11 13 14 14 15 14 13 13 13 13 13 13 13 12 13 11 8 8 17 25 24 21 19 19 20 23 24 25 27 27 28 29 28 28 27 27
25 24 22 19 16 14 13 11 11 10 10 10 10 9 10 11 7 3 4 4 4 4 3 2 1 1 1 1 1 1 1 2 2 2 3 4 5 7 9 10 11 12 12 11 10 10 9 8 9 10 11 11 11 12 13 13 13 14 13 13 13 13 12 11 11 9 8 8 18 25 23 19 18 19 21 23 24 26 26 27 28 27 28 27 26
27 26 24 21 18 16 14 12 12 11 11 11 11 9 9 11 7 3 3 3 3 3 2 2 2 2 2 2 2 2 2 2 2 2 2 3 3 4 5 6 8 8 8 9 8 8 8 8 9 10 11 10 10 10 11 10 11 12 11 12 13 12 11 12 12 10 8 7 8 16 22 21 18 18 20 22 23 24 25 26 27 27 27 27 26
28 27 27 24 21 18 16 14 13 12 12 12 12 10 9 10 7 4 3 3 2 2 2 3 3 3 4 4 4 4 4 4 4 4 4 4 4 4 4 4 4 5 5 5 5 5 6 6 7 8 9 10 10 11 11 11 11 11 10 11 13 13 12 13 13 12 11 9 6 7 14 20 20 18 19 21 22 24 24 25 25 25 25 25 26
29 29 28 26 23 21 19 16 15 14 13 13 12 11 9 10 8 5 4 3 2 1 2 3 3 4 4 3 3 3 3 4 4 5 5 5 5 5 5 4 4 3 3 3 3 3 3 4 5 6 6 7 9 10 10 11 12 12 12 13 14 14 14 14 14 14 13 12 10 7 9 15 19 20 21 22 22 22 23 23 24 24 24 24 25
30 30 30 28 26 24 21 19 17 15 14 14 14 11 9 10 9 7 5 4 3 2 1 2 2 2 2 2 1 1 1 1 2 3 4 5 5 6 6 5 5 4 4 3 3 3 3 2 3 3 4 4 5 7 7 8 10 11 12 14 15 15 15 15 16 15 14 13 14 13 12 13 15 17 19 21 24 25 23 23 24 24 24 25 25
28 29 30 31 29 27 23 21 19 17 16 16 15 12 10 10 9 8 7 6 5 4 3 2 2 2 2 1 1 2 2 2 1 1 1 2 4 4 5 5 6 6 5 5 4 4 4 3 3 3 3 3 3 4 5 5 6 7 8 9 11 11 12 14 15 14 14 14 15 16 16 16 16 17 16 16 19 23 24 24 24 23 24 26 27
Wind_Direction
223 221 222 224 222 210 202 200 203 201 202 200 196 195 185 178 176 170 152 131 118 111 103 97 92 91 90 84 77 71 66 61 56 61 73 76 76 87 105 122 130 143 162 167 169 172 169 165 166 167 167 165 164 163 163 161 159 157 156 155 152 149 147 144 138 135 131 127 124 119 113 107 101 94 88 81 75 69 65 61 59 55 52 50 50
220 213 215 218 219 211 203 202 202 201 201 199 198 192 183 177 173 163 148 129 116 112 105 101 96 93 91 85 79 74 69 65 60 65 77 79 72 84 106 126 138 140 158 170 173 175 174 170 169 170 170 169 167 166 167 165 163 161 159 158 156 153 152 147 142 139 135 133 130 124 118 110 102 95 88 81 75 69 64 59 55 53 51 48 48
217 206 207 211 215 214 207 204 202 203 201 198 198 191 182 174 167 156 144 132 120 116 112 108 105 101 96 91 84 78 73 69 64 69 83 89 77 74 100 117 141 145 152 169 177 178 177 174 172 173 173 172 170 169 169 168 167 165 162 162 159 157 155 150 146 143 141 139 137 131 124 115 105 97 89 81 74 68 62 57 52 49 49 47 46
218 204 202 210 216 217 214 208 203 204 202 200 198 190 180 170 162 150 141 136 126 121 117 112 109 105 100 94 89 83 77 73 70 74 86 98 90 72 95 109 132 147 149 164 179 183 181 178 176 176 176 175 174 172 172 171 170 168 165 165 164 162 158 153 150 148 147 145 142 138 130 121 112 101 91 82 73 67 61 56 52 47 47 46 44
214 203 203 212 218 219 219 209 205 204 202 201 198 188 179 169 158 148 140 135 129 126 121 113 106 100 95 90 88 90 85 80 78 81 92 105 111 107 104 107 119 139 149 158 178 186 186 181 179 178 178 178 177 176 174 174 173 172 169 168 168 166 160 156 155 154 151 149 147 144 135 127 119 107 94 83 72 65 59 55 52 46 44 44 43
207 204 207 213 219 217 217 208 205 204 202 202 198 188 179 168 158 148 137 131 128 125 116 108 100 92 87 82 85 92 90 86 87 87 94 102 108 111 109 110 111 123 146 156 173 186 190 186 182 182 181 180 180 179 177 176 176 175 173 171 172 169 163 161 161 158 156 153 151 148 140 133 127 114 99 85 73 64 58 54 52 47 42 42 42
205 209 210 214 216 211 213 205 203 203 201 201 198 189 180 170 159 150 138 130 123 120 110 100 92 89 85 82 84 87 86 84 86 85 91 99 103 108 108 108 107 109 128 146 165 183 191 191 186 184 183 183 182 181 180 179 179 178 177 174 175 173 169 167 166 163 161 159 155 151 146 141 134 123 109 90 74 64 57 52 51 47 41 40 41
203 211 214 212 208 206 208 202 201 199 196 197 195 189 181 172 161 152 141 129 121 116 105 100 96 95 94 91 89 90 88 82 79 83 93 102 104 104 104 105 106 101 99 117 146 176 191 195 191 187 186 185 183 184 183 181 181 181 180 178 178 178 175 173 171 169 166 164 163 157 152 148 141 132 120 99 76 63 55 50 49 46 40 37 38
202 209 214 210 206 204 204 199 198 196 192 193 192 188 182 174 165 156 144 134 124 114 107 109 107 104 104 103 101 100 95 87 84 86 96 102 104 103 103 103 101 96 84 87 112 156 189 197 196 189 188 187 185 186 186 184 184 184 184 182 181 182 182 179 176 175 171 170 173 167 160 157 151 142 130 112 85 63 53 47 45 43 38 35 35
203 208 212 210 211 205 201 197 197 195 192 192 189 188 185 177 168 160 150 141 132 123 119 118 117 117 115 113 112 111 104 97 95 95 98 102 104 102 102 101 99 100 92 86 95 125 179 197 198 193 189 190 188 187 188 187 187 187 187 187 185 185 186 186 183 181 179 178 179 175 170 168 159 149 140 125 99 68 50 43 40 39 36 32 33
199 205 211 211 213 205 200 196 196 197 195 192 189 192 189 183 174 164 155 148 143 131 128 132 134 133 127 124 119 121 120 113 107 103 103 106 108 110 111 110 110 117 123 122 121 124 161 190 198 196 192 191 190 188 191 191 189 189 189 190 189 189 191 192 191 187 187 187 183 181 185 181 169 162 155 140 117 75 47 38 33 33 32 27 29
196 200 207 209 211 205 199 195 195 196 193 191 190 194 190 183 177 168 160 152 144 133 138 148 150 150 143 137 132 134 131 122 115 111 112 114 120 126 130 132 134 136 147 156 150 145 155 182 194 196 194 193 192 190 192 193 192 191 192 193 192 192 194 196 197 195 195 194 190 190 196 189 177 178 171 162 147 81 37 29 22 24 28 23 24
198 198 201 205 209 204 196 191 191 193 188 187 192 192 184 180 178 171 163 157 155 152 160 169 169 167 160 153 149 148 142 136 129 125 124 126 131 131 139 149 149 144 149 164 171 172 175 183 190 195 196 194 194 194 193 194 194 194 194 195 196 196 196 199 201 204 203 201 199 201 202 193 188 193 191 193 194 308 346 351 353 8 17 16 18
198 197 198 201 204 199 191 187 185 188 185 184 193 192 184 183 183 178 178 181 183 187 192 197 198 189 183 174 166 162 159 156 151 147 146 145 147 143 150 155 150 141 138 148 165 176 182 190 192 194 197 196 196 198 197 195 196 196 196 197 199 199 199 200 203 209 211 209 208 210 208 200 203 207 206 215 229 260 276 289 297 331 358 5 9
199 197 199 200 195 192 188 187 184 186 191 190 196 196 196 197 199 196 198 207 211 216 214 211 211 204 197 187 177 169 167 173 172 164 162 166 168 177 177 163 150 139 133 135 152 169 178 190 195 196 198 197 196 199 201 198 198 198 198 198 201 202 202 202 203 208 213 215 216 217 214 208 213 215 216 226 236 247 253 264 275 290 325 347 357
201 195 199 199 190 192 189 188 191 196 197 196 201 203 206 205 208 209 205 215 220 220 216 211 210 207 201 193 185 178 183 197 202 187 184 206 206 213 219 198 183 162 155 166 170 171 178 191 198 199 199 199 198 199 203 203 201 200 200 200 202 204 205 206 207 208 212 216 219 221 218 215 220 220 223 231 238 245 252 262 269 276 300 327 340
201 194 195 194 185 192 192 190 200 206 203 202 208 211 210 206 211 214 213 219 223 224 220 216 214 213 211 206 199 203 210 219 238 234 222 234 239 242 250 258 256 247 247 226 196 185 189 198 203 204 201 201 201 200 202 204 204 203 203 203 203 205 207 208 210 211 213 215 220 224 221 220 224 226 230 236 242 248 255 261 265 269 283 308 325
201 197 195 197 190 194 199 198 204 207 207 207 210 216 214 212 217 218 221 224 227 229 228 228 226 225 227 228 225 226 236 240 249 252 246 246 251 256 260 270 279 280 283 284 276 273 240 216 210 209 206 203 203 203 202 204 206 205 205 206 205 206 209 210 212 215 216 216 220 224 223 224 228 230 235 240 245 250 255 259 262 265 273 294 311
197 200 201 208 200 200 208 207 212 210 209 214 216 222 222 221 222 226 227 228 233 235 234 234 234 238 239 238 237 239 248 252 257 264 263 259 258 261 264 267 271 277 286 296 313 316 281 246 218 211 211 208 205 205 205 205 207 207 206 207 208 208 210 211 213 217 218 220 223 224 224 228 231 233 238 242 245 249 253 256 259 262 269 285 301
191 198 206 215 212 209 212 214 221 218 212 218 224 223 224 225 226 234 235 235 243 244 243 241 241 244 244 243 242 245 251 255 258 264 269 268 262 257 259 265 266 270 282 295 309 316 288 256 226 211 211 213 210 208 207 207 208 209 208 207 209 210 211 212 214 217 218 221 224 224 225 229 232 234 238 241 244 247 249 253 256 260 267 280 294
190 197 209 218 219 217 217 219 223 222 217 220 226 226 226 228 232 240 244 245 248 251 249 246 248 249 251 251 246 246 250 254 254 255 264 269 268 262 259 264 264 265 277 290 300 303 291 257 232 216 211 213 214 213 210 209 209 210 210 209 209 210 212 213 215 219 220 222 224 224 225 228 231 233 237 239 242 244 246 249 253 258 265 277 289
190 199 213 220 219 219 220 226 229 225 222 222 228 231 229 230 236 243 249 251 248 249 252 251 253 254 255 256 252 252 252 253 255 257 264 267 270 269 263 261 261 265 273 280 286 291 289 261 240 228 217 214 216 217 214 212 210 210 212 211 209 210 212 215 218 220 223 225 224 224 225 227 229 232 235 238 239 241 243 246 250 256 264 274 283
192 198 208 215 218 224 222 227 236 232 223 225 235 239 233 232 240 245 246 252 254 254 259 258 256 254 255 259 255 247 255 261 259 260 265 262 262 266 265 261 264 266 266 268 271 279 286 283 267 248 227 215 215 217 217 216 214 212 212 212 211 209 211 215 219 221 225 227 225 225 226 227 229 231 233 236 237 238 241 245 249 256 264 272 278
191 192 200 213 225 239 235 226 234 237 230 226 237 245 243 242 247 249 247 254 261 260 261 258 255 254 252 260 260 238 256 259 245 245 253 254 255 260 263 262 269 265 256 255 259 265 280 299 299 271 237 217 214 214 217 219 219 216 213 213 212 209 210 214 219 221 226 228 225 226 227 227 229 230 231 234 237 238 240 244 249 255 261 267 272
189 188 198 211 220 240 253 249 243 246 251 245 247 253 253 252 249 248 250 257 261 259 258 258 257 260 259 263 272 279 258 239 235 247 248 250 254 259 259 257 262 260 255 251 252 259 274 295 307 300 244 223 216 209 211 218 222 221 216 215 213 211 210 212 218 221 226 229 226 226 228 228 229 230 231 232 235 238 240 244 248 253 258 262 267
192 188 198 207 207 221 245 265 258 246 253 262 266 270 269 267 260 250 248 251 252 251 254 257 257 265 273 268 270 273 246 234 243 257 258 255 255 256 253 249 250 251 252 250 247 255 265 271 276 279 226 225 218 207 209 216 224 226 222 219 216 213 211 211 215 220 226 230 227 226 228 229 230 230 232 232 234 237 239 243 247 250 254 257 261
191 188 198 208 208 217 229 257 268 262 251 247 251 267 271 269 266 255 245 246 246 246 252 255 256 262 263 258 263 266 255 247 238 238 244 244 246 247 246 243 245 248 244 239 239 246 251 249 248 255 245 230 220 215 213 218 226 229 226 222 218 215 213 211 214 219 225 229 229 228 228 228 230 230 232 234 234 236 238 242 245 248 250 253 256
191 195 203 209 213 224 232 248 270 278 273 256 238 255 269 270 271 263 252 256 254 251 253 252 253 257 255 254 259 261 258 254 247 241 235 231 233 233 236 238 237 245 242 233 234 234 240 239 236 242 247 247 235 226 220 219 224 228 229 225 220 218 215 213 214 218 224 228 230 231 230 229 230 231 232 234 236 236 237 240 243 245 247 249 251
199 201 210 218 228 241 247 251 261 272 278 277 269 260 262 264 265 263 257 257 253 248 249 246 247 256 258 257 259 264 263 258 257 256 248 241 241 232 232 239 231 235 238 241 245 239 240 239 235 237 241 255 250 235 226 220 219 224 230 227 221 219 218 215 215 218 222 228 230 233 233 231 230 231 232 233 235 237 237 239 241 243 245 246 247
209 211 226 235 246 257 257 255 259 265 274 283 287 280 273 270 266 266 262 258 257 253 252 254 262 267 266 265 263 263 259 254 249 251 252 248 253 252 248 252 244 236 231 236 243 240 241 240 239 241 241 250 249 239 232 224 220 223 227 226 220 220 220 217 216 218 221 227 231 233 235 233 232 233 233 233 234 236 238 238 240 240 242 243 244
217 223 238 248 255 265 265 263 265 268 271 277 282 284 287 289 283 277 275 274 275 272 268 270 273 269 270 271 264 255 251 256 252 249 253 253 258 258 252 256 257 253 247 240 235 232 236 236 236 239 241 244 233 224 230 227 224 225 228 226 220 219 221 219 218 219 220 225 230 233 236 236 235 234 234 235 234 235 237 239 240 239 239 240 241
218 223 231 245 253 261 274 278 278 276 274 273 273 275 279 282 280 279 282 283 279 276 278 275 265 260 261 264 263 261 260 264 260 253 255 257 260 257 252 257 261 260 257 251 240 234 236 235 235 236 238 244 237 220 217 225 227 225 228 230 225 220 220 221 221 221 222 224 229 233 237 239 238 237 235 236 235 236 236 238 240 240 239 238 239
212 216 221 229 239 256 291 306 302 293 280 275 273 270 267 268 269 270 274 276 275 277 278 272 263 257 254 255 260 263 264 265 265 262 257 252 252 256 257 259 262 259 251 249 244 238 239 237 237 239 239 244 249 242 230 225 228 229 228 231 232 226 220 221 223 224 225 225 229 233 237 239 241 240 239 237 236 236 237 238 239 240 240 238 238
210 214 215 222 237 264 305 320 320 311 292 279 272 268 266 267 267 268 272 275 275 277 278 279 279 273 265 260 259 259 261 264 264 262 259 253 249 254 258 256 255 252 244 243 243 240 245 246 242 244 244 246 253 258 249 235 229 231 228 226 232 232 222 220 224 226 228 228 229 234 237 238 240 242 242 241 239 238 238 239 239 241 241 241 240
214 217 215 229 251 282 309 323 328 326 312 294 279 273 270 269 269 270 273 275 275 275 276 282 288 288 285 278 271 265 260 259 259 257 255 251 248 252 258 260 259 256 247 242 244 242 244 249 249 248 246 246 248 253 254 238 229 232 232 222 224 230 226 223 224 225 227 229 231 234 238 239 239 242 244 244 243 241 240 240 241 241 242 243 242
216 219 222 237 262 291 311 325 331 332 327 314 298 285 279 274 273 271 270 271 271 271 271 274 278 280 283 283 282 278 267 258 256 256 255 254 254 256 261 264 263 261 258 252 251 249 245 246 249 251 247 243 243 245 247 239 233 236 234 222 216 221 226 227 227 227 226 227 230 233 236 238 238 240 242 244 245 244 242 241 242 242 243 243 244
219 223 231 243 264 285 304 320 328 334 334 328 316 299 290 284 281 276 272 271 271 271 269 269 269 271 275 277 277 277 274 267 260 255 255 256 258 260 265 268 265 264 267 266 262 260 259 253 248 249 249 243 240 242 245 244 240 237 230 223 217 215 219 227 232 233 230 226 226 231 236 238 238 239 240 242 245 246 245 243 242 243 244 244 245
223 228 235 244 259 278 297 313 323 331 333 331 321 306 297 289 285 280 275 273 273 273 271 269 268 268 269 269 269 270 271 270 267 261 257 257 258 262 265 268 268 266 266 266 265 266 265 263 256 251 250 247 243 241 243 242 239 234 230 227 222 215 213 219 229 234 233 230 226 226 232 236 238 242 242 241 243 246 247 247 245 245 246 246 247
228 232 238 245 257 274 292 306 315 323 329 330 324 314 307 300 292 284 278 276 276 277 275 272 270 266 264 265 267 269 270 270 270 268 265 262 260 262 263 266 268 266 262 259 263 268 269 271 267 259 257 256 252 246 243 240 235 232 231 231 230 226 217 211 218 225 228 230 230 228 230 233 236 241 243 241 242 244 246 249 249 248 249 249 250
233 236 241 247 257 273 288 300 307 316 324 330 331 327 323 318 306 294 288 286 284 283 281 278 274 267 264 266 269 271 272 270 268 268 267 265 263 262 263 264 267 269 269 267 268 271 273 275 272 266 263 260 257 254 249 241 234 232 234 236 238 244 239 222 215 219 221 224 229 232 232 233 236 240 242 241 243 244 243 247 251 251 252 252 253
236 241 245 249 259 271 283 294 302 312 320 329 335 335 336 330 317 309 304 297 293 292 289 284 279 272 267 268 270 272 271 268 266 267 268 267 265 264 263 263 264 268 271 271 268 268 270 272 271 268 266 263 257 255 256 250 241 238 242 244 244 255 263 249 227 221 222 220 223 232 232 232 234 239 241 239 241 243 242 244 249 251 253 254 255
242 247 248 250 256 265 276 287 296 305 312 323 332 338 342 333 319 318 312 303 300 296 289 285 283 278 272 270 270 270 271 269 265 262 264 265 264 264 263 263 263 264 266 268 268 266 266 268 267 265 265 261 256 256 260 259 251 247 250 251 251 257 263 262 244 228 223 220 220 226 230 233 235 237 238 237 239 242 242 243 247 249 250 252 254
246 250 249 249 253 259 270 280 287 294 300 309 320 332 341 334 319 320 316 307 303 296 289 287 287 282 274 270 267 267 269 268 265 259 258 259 260 259 259 260 261 261 264 267 269 266 264 265 267 268 264 256 255 259 259 260 257 256 260 259 258 263 259 264 274 247 225 220 219 218 220 229 235 236 237 238 240 241 241 242 245 248 248 249 252
247 249 249 249 250 255 264 272 277 283 288 295 304 320 336 334 319 321 323 312 308 299 288 285 283 281 277 269 263 264 266 267 267 264 260 257 255 253 254 255 257 258 261 265 268 266 261 259 264 267 264 258 257 260 261 263 261 258 262 263 260 262 261 263 280 283 240 226 221 215 214 219 224 230 235 237 238 239 240 241 243 246 248 249 251
247 249 250 249 248 248 253 262 269 274 279 285 293 305 329 332 316 323 337 320 311 299 287 290 290 286 267 244 243 242 250 258 262 266 264 258 255 253 252 251 253 255 258 262 264 264 258 253 257 260 264 267 263 262 265 266 263 262 261 262 263 260 262 266 270 296 287 241 227 221 222 224 217 219 225 229 232 234 236 240 241 243 247 249 250
246 248 248 246 243 239 243 254 261 268 271 276 285 294 319 327 315 324 344 326 315 305 305 321 313 288 262 241 248 242 252 260 259 271 271 264 259 256 253 251 253 256 258 259 259 258 255 251 252 254 260 266 262 261 266 264 264 268 266 265 267 260 260 271 277 290 314 279 238 228 229 228 218 219 223 223 227 231 233 236 238 239 243 246 247
245 246 245 244 240 234 236 246 254 261 266 272 280 285 309 321 310 316 341 332 328 319 310 306 286 278 272 269 281 285 287 287 283 286 288 287 280 270 265 258 255 257 256 258 256 254 256 254 249 249 253 258 256 255 258 260 262 266 269 267 264 259 258 270 279 279 288 304 273 243 234 225 222 231 233 231 230 230 234 237 238 239 240 241 243
242 244 244 242 238 235 235 240 248 256 262 269 275 279 299 312 303 298 317 320 339 340 303 285 275 272 276 281 288 289 286 282 278 277 277 281 282 280 279 273 267 264 260 256 256 253 253 254 252 250 253 253 252 251 250 252 254 256 259 259 257 257 261 268 272 270 267 270 285 277 247 232 229 233 234 240 240 233 235 239 240 242 242 242 243
234 239 241 239 236 235 234 237 244 251 256 262 268 272 286 300 294 285 294 292 301 342 313 285 279 279 285 289 291 290 283 277 271 267 267 266 269 272 272 275 276 273 271 266 264 264 256 251 249 249 252 252 251 250 252 252 251 252 254 254 256 256 257 262 261 261 263 261 264 279 264 244 239 235 231 236 241 238 237 238 238 240 241 241 242
233 235 236 235 233 233 233 235 241 247 251 255 260 264 274 287 284 275 279 275 266 283 307 303 305 300 300 313 325 321 280 265 255 252 258 258 260 263 263 268 273 272 273 271 267 273 271 262 255 251 249 248 249 248 249 251 250 252 254 255 257 256 255 256 255 256 257 257 259 261 260 256 254 252 246 239 238 238 237 236 238 241 242 244 246
244 241 238 233 229 230 232 232 235 241 245 249 254 257 264 273 273 269 270 268 259 256 265 302 330 336 336 0 39 63 87 95 107 171 220 244 250 254 258 260 264 267 266 264 266 270 273 271 263 262 260 251 252 252 248 248 247 248 251 251 254 255 255 256 258 260 256 251 250 250 250 251 253 257 261 258 250 244 240 238 240 243 244 245 247
Height
3141 3142 3143 3143 3144 3144 3144 3144 3145 3145 3145 3146 3146 3146 3146 3146 3147 3147 3147 3147 3147 3148 3148 3149 3149 3149 3149 3149 3150 3150 3150 3150 3150 3150 3151 3151 3152 3153 3154 3155 3155 3156 3156 3157 3158 3159 3160 3161 3162 3163 3164 3165 3166 3167 3168 3169 3170 3170 3171 3172 3173 3173 3174 3174 3175 3175 3176 3176 3177 3177 3178 3178 3178 3178 3178 3178 3178 3177 3177 3176 3176 3175 3174 3174 3173
3140 3141 3142 3143 3143 3143 3144 3144 3145 3145 3145 3145 3146 3146 3146 3146 3146 3147 3147 3147 3147 3148 3148 3149 3149 3149 3149 3149 3150 3150 3150 3150 3150 3151 3151 3151 3152 3152 3153 3155 3156 3156 3156 3157 3158 3159 3160 3161 3162 3163 3164 3165 3166 3168 3169 3170 3170 3171 3172 3173 3173 3174 3175 3175 3176 3176 3177 3177 3178 3178 3179 3179 3179 3179 3179 3179 3179 3178 3178 3177 3177 3176 3176 3175 3175
3140 3141 3141 3142 3142 3143 3143 3144 3144 3145 3145 3145 3145 3146 3146 3146 3146 3146 3147 3147 3147 3148 3148 3149 3149 3149 3149 3149 3149 3150 3150 3150 3151 3151 3151 3152 3152 3152 3153 3155 3156 3156 3157 3157 3159 3159 3160 3161 3162 3163 3164 3165 3167 3168 3169 3170 3171 3171 3172 3173 3174 3174 3175 3176 3176 3177 3178 3178 3178 3179 3179 3179 3180 3180 3180 3180 3180 3179 3179 3178 3178 3177 3177 3177 3176
3139 3140 3141 3141 3142 3142 3143 3143 3144 3144 3145 3145 3145 3145 3146 3146 3146 3146 3147 3147 3147 3148 3148 3149 3149 3149 3149 3149 3149 3150 3150 3151 3151 3151 3152 3152 3152 3153 3154 3155 3155 3156 3157 3157 3159 3159 3160 3161 3162 3163 3164 3165 3167 3168 3169 3170 3171 3172 3173 3174 3175 3175 3176 3177 3177 3178 3178 3178 3179 3179 3179 3180 3180 3180 3181 3181 3180 3180 3180 3179 3179 3179 3178 3178 3177
3139 3140 3140 3141 3141 3142 3142 3143 3143 3144 3144 3145 3145 3145 3146 3146 3146 3146 3147 3147 3147 3148 3148 3149 3149 3149 3149 3149 3150 3150 3150 3151 3151 3152 3152 3152 3153 3153 3154 3155 3155 3156 3157 3157 3158 3159 3160 3161 3162 3163 3164 3165 3166 3168 3169 3170 3171 3172 3173 3174 3175 3176 3176 3177 3178 3178 3179 3179 3179 3180 3180 3180 3181 3181 3181 3181 3181 3181 3181 3181 3180 3180 3179 3179 3178
3139 3140 3140 3140 3141 3141 3142 3142 3143 3143 3144 3144 3145 3145 3146 3146 3146 3146 3147 3147 3147 3148 3148 3149 3149 3149 3149 3150 3150 3150 3151 3151 3152 3152 3152 3152 3153 3153 3154 3155 3155 3156 3157 3157 3158 3159 3160 3160 3161 3162 3164 3165 3166 3168 3169 3170 3171 3173 3173 3174 3175 3176 3177 3177 3178 3179 3179 3179 3180 3180 3180 3181 3181 3181 3182 3182 3182 3182 3182 3182 3181 3181 3180 3180 3179
3138 3139 3139 3140 3141 3141 3141 3142 3143 3143 3144 3144 3145 3145 3145 3146 3146 3146 3147 3147 3147 3148 3148 3149 3149 3149 3150 3150 3150 3151 3151 3151 3152 3152 3152 3153 3153 3154 3154 3155 3155 3156 3157 3157 3157 3158 3159 3160 3161 3162 3163 3165 3166 3168 3169 3170 3172 3173 3174 3175 3176 3177 3177 3177 3178 3179 3179 3180 3180 3180 3181 3181 3181 3182 3182 3183 3183 3183 3183 3182 3182 3182 3181 3181 3180
3138 3139 3139 3140 3140 3141 3141 3142 3142 3143 3144 3144 3145 3145 3145 3146 3146 3146 3147 3147 3148 3148 3148 3149 3149 3149 3150 3150 3150 3151 3151 3151 3152 3152 3153 3153 3154 3154 3155 3155 3156 3156 3157 3157 3157 3158 3158 3159 3160 3162 3163 3164 3166 3167 3169 3170 3172 3173 3174 3175 3176 3177 3177 3178 3178 3179 3180 3181 3181 3181 3181 3182 3182 3182 3183 3183 3183 3183 3183 3183 3183 3183 3182 3181 3181
3138 3138 3139 3140 3140 3141 3141 3142 3142 3143 3143 3144 3144 3145 3146 3146 3146 3146 3147 3147 3148 3148 3148 3149 3149 3149 3150 3150 3150 3151 3151 3151 3152 3152 3153 3153 3154 3154 3155 3155 3156 3156 3157 3157 3157 3158 3158 3159 3160 3161 3163 3164 3166 3167 3169 3170 3172 3173 3174 3175 3176 3177 3178 3178 3179 3179 3180 3181 3181 3181 3182 3182 3182 3182 3183 3183 3184 3184 3184 3184 3184 3183 3183 3182 3182
3138 3138 3138 3139 3140 3140 3141 3142 3142 3143 3143 3144 3144 3145 3146 3146 3146 3147 3147 3148 3148 3148 3148 3149 3149 3149 3150 3150 3150 3150 3151 3151 3152 3152 3153 3153 3153 3154 3155 3155 3156 3156 3157 3157 3157 3158 3158 3159 3159 3161 3163 3164 3165 3167 3168 3170 3171 3173 3174 3175 3176 3177 3178 3179 3179 3180 3180 3181 3181 3182 3182 3182 3183 3183 3183 3184 3184 3184 3184 3184 3184 3184 3183 3183 3182
3137 3138 3138 3139 3139 3140 3141 3142 3142 3143 3143 3144 3144 3145 3146 3146 3146 3147 3147 3147 3148 3148 3149 3149 3149 3149 3150 3150 3150 3150 3151 3151 3152 3152 3153 3153 3153 3154 3155 3155 3156 3156 3157 3157 3157 3157 3158 3158 3159 3160 3162 3163 3165 3166 3168 3169 3171 3172 3174 3175 3177 3177 3178 3179 3179 3180 3180 3181 3181 3182 3183 3183 3183 3184 3184 3184 3185 3185 3185 3185 3185 3185 3184 3183 3183
3137 3137 3138 3138 3139 3140 3141 3142 3142 3143 3143 3144 3144 3145 3146 3146 3147 3147 3147 3148 3148 3148 3149 3149 3149 3149 3149 3150 3150 3150 3150 3151 3152 3152 3153 3153 3153 3154 3155 3155 3156 3156 3157 3157 3157 3157 3157 3158 3159 3160 3161 3163 3164 3165 3167 3168 3170 3171 3173 3175 3176 3177 3178 3178 3179 3180 3180 3181 3182 3182 3182 3183 3184 3184 3185 3185 3185 3185 3185 3185 3185 3185 3185 3184 3184
3136 3136 3137 3138 3139 3140 3141 3142 3142 3143 3143 3144 3144 3145 3146 3146 3147 3147 3147 3148 3148 3148 3149 3149 3149 3149 3149 3149 3150 3150 3150 3151 3151 3152 3152 3153 3153 3154 3154 3155 3156 3156 3156 3157 3157 3157 3157 3157 3158 3159 3160 3162 3164 3164 3166 3167 3169 3171 3172 3174 3176 3176 3177 3178 3180 3180 3180 3181 3182 3182 3182 3183 3184 3185 3185 3185 3186 3186 3186 3186 3186 3186 3185 3185 3184
3134 3136 3136 3138 3139 3140 3141 3141 3142 3142 3143 3143 3144 3145 3146 3146 3147 3147 3147 3148 3148 3148 3149 3149 3149 3149 3149 3149 3149 3150 3150 3150 3151 3152 3152 3152 3153 3154 3154 3155 3156 3156 3156 3156 3157 3157 3157 3157 3158 3158 3159 3161 3163 3164 3165 3166 3168 3169 3171 3173 3175 3176 3177 3178 3179 3180 3180 3181 3182 3182 3182 3184 3184 3185 3185 3186 3186 3186 3186 3186 3186 3186 3186 3185 3185
3134 3135 3136 3138 3139 3140 3140 3141 3141 3142 3143 3143 3144 3145 3145 3146 3146 3147 3147 3148 3148 3148 3149 3149 3149 3149 3149 3149 3149 3149 3150 3150 3151 3151 3152 3152 3153 3153 3154 3155 3155 3156 3156 3156 3156 3157 3157 3157 3157 3158 3159 3160 3162 3163 3164 3165 3167 3168 3170 3171 3173 3175 3176 3177 3178 3179 3180 3181 3181 3182 3182 3184 3184 3185 3185 3186 3186 3186 3186 3186 3186 3186 3186 3186 3185
3134 3135 3136 3138 3139 3140 3140 3141 3141 3142 3142 3143 3144 3144 3145 3145 3146 3147 3147 3147 3148 3148 3148 3148 3148 3148 3148 3148 3149 3149 3150 3150 3151 3151 3152 3152 3153 3153 3154 3154 3155 3155 3156 3156 3156 3156 3157 3157 3157 3157 3158 3159 3161 3162 3164 3165 3166 3167 3169 3170 3172 3174 3175 3176 3177 3178 3179 3180 3181 3181 3182 3183 3184 3184 3185 3185 3185 3186 3186 3186 3186 3187 3187 3186 3186
3134 3135 3136 3138 3139 3140 3140 3141 3141 3141 3142 3143 3144 3144 3144 3145 3145 3146 3147 3147 3147 3148 3148 3148 3148 3148 3148 3148 3149 3149 3150 3150 3150 3151 3152 3152 3152 3153 3153 3154 3154 3155 3155 3155 3156 3156 3156 3156 3157 3157 3157 3159 3160 3161 3162 3164 3165 3166 3168 3169 3171 3172 3174 3175 3176 3177 3178 3179 3180 3180 3181 3183 3183 3184 3185 3185 3185 3186 3186 3186 3187 3187 3187 3187 3187
3134 3135 3136 3137 3139 3140 3140 3140 3141 3141 3142 3143 3144 3144 3144 3144 3145 3145 3146 3146 3147 3147 3147 3147 3147 3147 3147 3148 3149 3149 3150 3150 3150 3150 3151 3152 3152 3153 3153 3153 3154 3154 3154 3155 3155 3156 3156 3156 3156 3156 3157 3158 3159 3160 3161 3163 3164 3165 3167 3168 3170 3171 3173 3174 3176 3176 3177 3178 3178 3178 3181 3182 3183 3184 3184 3184 3185 3186 3186 3186 3187 3187 3187 3187 3187
3135 3135 3136 3136 3138 3139 3139 3140 3140 3141 3142 3143 3143 3143 3143 3144 3144 3145 3145 3145 3146 3146 3146 3146 3146 3146 3147 3147 3148 3149 3149 3150 3150 3150 3150 3151 3152 3152 3153 3153 3153 3153 3153 3154 3155 3155 3155 3155 3155 3155 3156 3157 3158 3159 3160 3162 3163 3164 3165 3167 3169 3170 3172 3173 3174 3175 3176 3177 3177 3178 3181 3182 3182 3183 3183 3184 3184 3185 3186 3186 3186 3187 3187 3187 3187
3136 3136 3136 3136 3138 3139 3139 3140 3140 3141 3142 3143 3143 3142 3143 3144 3144 3144 3144 3145 3145 3145 3145 3145 3145 3146 3146 3146 3147 3148 3149 3149 3150 3150 3150 3150 3151 3152 3152 3152 3152 3152 3152 3153 3153 3154 3154 3154 3154 3154 3155 3156 3157 3158 3159 3160 3162 3163 3164 3166 3168 3169 3171 3172 3173 3173 3175 3175 3175 3177 3180 3180 3181 3182 3183 3183 3184 3185 3185 3186 3186 3186 3187 3187 3187
3136 3136 3136 3137 3137 3138 3139 3139 3139 3141 3143 3143 3142 3142 3143 3143 3144 3144 3144 3144 3144 3144 3144 3144 3144 3145 3144 3145 3147 3147 3148 3149 3149 3150 3150 3150 3150 3151 3151 3151 3151 3152 3152 3152 3152 3152 3153 3153 3153 3153 3154 3155 3156 3156 3158 3159 3160 3162 3163 3164 3166 3168 3169 3171 3171 3172 3173 3173 3174 3177 3178 3179 3180 3181 3182 3182 3183 3184 3185 3185 3185 3186 3187 3187 3187
3135 3136 3136 3137 3137 3138 3138 3138 3139 3141 3142 3142 3142 3142 3142 3143 3144 3144 3144 3144 3143 3144 3143 3143 3143 3143 3143 3144 3146 3146 3147 3149 3149 3149 3149 3149 3149 3149 3150 3150 3151 3151 3151 3151 3151 3151 3151 3152 3152 3152 3153 3153 3154 3155 3156 3157 3159 3160 3162 3163 3165 3166 3168 3169 3170 3171 3172 3172 3173 3175 3176 3178 3179 3180 3181 3181 3182 3183 3184 3184 3185 3185 3186 3187 3187
3135 3136 3136 3136 3137 3137 3138 3139 3139 3140 3141 3142 3141 3141 3142 3143 3144 3144 3144 3143 3143 3143 3143 3142 3142 3141 3141 3142 3145 3146 3147 3148 3148 3148 3148 3149 3148 3148 3149 3149 3150 3151 3151 3150 3150 3150 3150 3151 3151 3151 3151 3151 3152 3153 3155 3156 3157 3159 3160 3162 3164 3165 3166 3168 3169 3170 3170 3170 3172 3174 3175 3176 3177 3179 3180 3180 3181 3182 3183 3184 3184 3185 3185 3186 3187
3135 3136 3136 3136 3136 3136 3137 3139 3139 3139 3140 3140 3140 3140 3141 3142 3143 3143 3143 3142 3142 3143 3142 3141 3140 3138 3139 3140 3143 3147 3148 3147 3148 3148 3148 3148 3148 3147 3147 3148 3149 3150 3150 3149 3149 3149 3149 3149 3150 3150 3150 3150 3150 3152 3153 3155 3156 3157 3159 3160 3162 3163 3165 3167 3168 3169 3169 3169 3172 3173 3174 3175 3176 3177 3178 3179 3180 3181 3182 3183 3183 3184 3185 3186 3186
3135 3136 3136 3136 3136 3135 3135 3136 3137 3137 3137 3137 3137 3138 3140 3140 3142 3143 3142 3143 3142 3143 3142 3140 3139 3138 3140 3141 3142 3146 3148 3147 3148 3149 3149 3148 3147 3147 3146 3147 3148 3148 3149 3148 3148 3149 3148 3149 3149 3149 3149 3149 3150 3151 3152 3154 3154 3155 3157 3159 3160 3162 3163 3165 3166 3168 3168 3168 3171 3172 3172 3174 3175 3176 3177 3178 3179 3180 3181 3182 3182 3183 3184 3185 3185
3134 3135 3136 3136 3136 3136 3136 3134 3134 3136 3136 3135 3135 3135 3137 3138 3141 3142 3142 3142 3142 3142 3142 3140 3139 3141 3143 3143 3142 3145 3147 3146 3147 3148 3148 3147 3146 3146 3145 3146 3147 3147 3148 3148 3148 3148 3148 3148 3149 3149 3149 3149 3149 3150 3151 3152 3153 3154 3156 3157 3159 3161 3162 3163 3165 3166 3167 3167 3169 3170 3171 3172 3173 3174 3175 3177 3178 3179 3180 3180 3181 3182 3183 3183 3184
3134 3135 3135 3136 3136 3137 3137 3135 3133 3133 3135 3136 3136 3135 3134 3136 3138 3139 3140 3141 3141 3141 3141 3139 3140 3143 3144 3143 3141 3144 3145 3146 3147 3149 3148 3146 3146 3145 3145 3146 3146 3146 3147 3147 3147 3147 3148 3148 3148 3149 3149 3149 3149 3150 3150 3151 3152 3153 3154 3155 3157 3159 3160 3162 3163 3165 3166 3166 3168 3169 3170 3171 3172 3173 3174 3175 3176 3177 3178 3179 3180 3181 3182 3182 3183
3133 3134 3135 3135 3136 3137 3137 3136 3134 3132 3132 3134 3137 3136 3134 3135 3136 3137 3139 3140 3141 3141 3140 3139 3142 3143 3143 3142 3142 3143 3143 3143 3145 3147 3148 3147 3146 3145 3146 3146 3145 3145 3146 3146 3146 3147 3147 3147 3147 3148 3149 3149 3149 3149 3150 3150 3151 3151 3152 3153 3155 3157 3159 3160 3162 3163 3164 3165 3166 3167 3168 3169 3170 3171 3172 3173 3175 3176 3177 3178 3179 3180 3180 3181 3182
3133 3134 3134 3135 3136 3136 3137 3136 3135 3133 3130 3129 3133 3135 3135 3136 3135 3135 3138 3140 3140 3140 3138 3139 3143 3143 3141 3141 3141 3141 3141 3141 3142 3143 3144 3145 3144 3143 3145 3145 3144 3144 3145 3144 3144 3146 3147 3148 3148 3148 3148 3148 3148 3149 3149 3149 3150 3150 3150 3151 3153 3156 3157 3159 3160 3162 3163 3164 3165 3166 3167 3167 3168 3169 3171 3172 3173 3174 3175 3176 3177 3178 3179 3180 3181
3132 3133 3134 3134 3135 3136 3136 3136 3135 3134 3132 3130 3129 3131 3132 3134 3133 3133 3135 3135 3135 3136 3135 3137 3141 3140 3139 3140 3139 3139 3139 3140 3141 3140 3140 3142 3141 3140 3142 3142 3141 3142 3144 3144 3144 3145 3146 3148 3149 3148 3148 3148 3148 3148 3148 3148 3148 3148 3149 3150 3151 3153 3155 3157 3159 3160 3162 3163 3163 3164 3165 3166 3167 3168 3169 3170 3171 3172 3174 3175 3176 3177 3178 3179 3179
3132 3132 3133 3134 3134 3135 3135 3135 3135 3134 3134 3133 3131 3130 3130 3131 3131 3130 3130 3131 3131 3131 3131 3133 3138 3138 3137 3138 3138 3138 3138 3138 3139 3139 3140 3141 3140 3139 3139 3138 3137 3138 3140 3142 3143 3144 3145 3145 3146 3146 3146 3146 3146 3147 3147 3147 3148 3148 3148 3149 3150 3151 3153 3155 3157 3159 3160 3161 3162 3162 3163 3164 3165 3166 3167 3168 3170 3171 3172 3173 3174 3176 3176 3177 3178
3131 3132 3132 3133 3134 3134 3134 3134 3134 3134 3133 3133 3132 3132 3131 3130 3130 3130 3129 3130 3130 3130 3129 3131 3135 3136 3136 3136 3136 3136 3136 3136 3137 3138 3139 3139 3139 3137 3137 3136 3136 3137 3138 3139 3140 3142 3142 3143 3144 3144 3144 3144 3145 3146 3146 3146 3147 3147 3147 3148 3148 3149 3151 3154 3156 3157 3158 3160 3160 3161 3161 3163 3164 3165 3166 3167 3168 3169 3170 3171 3173 3174 3175 3176 3177
3130 3131 3132 3133 3133 3133 3134 3134 3133 3133 3132 3132 3131 3131 3131 3130 3130 3130 3130 3130 3131 3130 3130 3131 3133 3134 3134 3134 3135 3134 3134 3134 3136 3137 3137 3137 3137 3135 3135 3135 3135 3136 3137 3138 3138 3139 3140 3141 3142 3142 3142 3142 3143 3144 3144 3145 3145 3145 3146 3147 3147 3148 3149 3152 3154 3155 3157 3158 3159 3159 3160 3161 3162 3163 3164 3165 3166 3168 3169 3170 3171 3172 3173 3174 3175
3129 3130 3131 3132 3133 3133 3133 3133 3133 3132 3132 3131 3131 3130 3130 3129 3129 3129 3129 3129 3130 3130 3130 3130 3131 3131 3132 3132 3133 3133 3133 3133 3135 3136 3136 3136 3135 3134 3133 3134 3134 3135 3136 3136 3137 3138 3139 3140 3140 3141 3141 3141 3141 3141 3142 3143 3144 3144 3145 3145 3146 3147 3148 3150 3151 3153 3155 3156 3158 3158 3159 3160 3161 3162 3163 3164 3165 3166 3167 3168 3169 3170 3171 3172 3173
3129 3130 3131 3131 3132 3132 3132 3132 3132 3131 3131 3130 3130 3129 3129 3128 3128 3128 3128 3128 3129 3129 3128 3128 3129 3129 3129 3130 3131 3131 3131 3132 3133 3133 3134 3134 3133 3132 3131 3131 3133 3133 3134 3134 3135 3137 3138 3139 3139 3140 3140 3140 3140 3140 3140 3142 3142 3143 3143 3144 3145 3146 3147 3148 3149 3151 3153 3154 3156 3157 3158 3159 3160 3161 3162 3162 3163 3164 3165 3166 3167 3168 3169 3171 3172
3128 3129 3130 3131 3131 3131 3131 3131 3131 3130 3130 3129 3128 3128 3127 3127 3127 3127 3127 3127 3127 3127 3127 3127 3127 3128 3128 3128 3129 3129 3129 3130 3130 3131 3131 3131 3130 3130 3130 3130 3132 3132 3132 3132 3134 3136 3139 3139 3139 3139 3138 3139 3139 3139 3139 3140 3141 3141 3142 3142 3143 3144 3145 3147 3148 3149 3150 3152 3154 3155 3156 3157 3158 3159 3160 3161 3161 3162 3163 3164 3165 3166 3167 3168 3170
3128 3129 3129 3130 3130 3131 3130 3130 3130 3129 3129 3128 3127 3127 3126 3126 3126 3126 3126 3126 3126 3126 3126 3126 3126 3127 3127 3127 3127 3127 3127 3128 3128 3128 3129 3129 3129 3129 3129 3129 3129 3130 3131 3132 3133 3135 3138 3139 3138 3138 3138 3138 3138 3137 3138 3138 3139 3139 3139 3140 3141 3142 3143 3144 3145 3146 3148 3149 3151 3153 3154 3155 3157 3158 3158 3159 3160 3161 3161 3162 3163 3164 3165 3166 3168
3127 3128 3129 3129 3130 3130 3130 3129 3129 3128 3128 3127 3127 3126 3126 3125 3125 3125 3124 3124 3124 3124 3124 3124 3125 3125 3125 3126 3125 3126 3126 3127 3127 3127 3127 3128 3128 3127 3127 3127 3127 3128 3131 3132 3132 3133 3135 3137 3138 3138 3138 3138 3137 3136 3136 3136 3137 3137 3137 3138 3138 3139 3140 3142 3143 3144 3146 3147 3148 3150 3152 3154 3155 3156 3157 3158 3159 3159 3160 3160 3161 3162 3163 3164 3165
3127 3127 3128 3129 3129 3129 3129 3129 3128 3128 3127 3127 3126 3126 3125 3124 3124 3124 3123 3123 3123 3123 3122 3122 3123 3124 3124 3124 3124 3124 3125 3126 3126 3126 3126 3126 3126 3126 3126 3126 3126 3127 3130 3131 3131 3131 3132 3134 3136 3137 3137 3137 3136 3135 3135 3134 3135 3135 3135 3136 3136 3136 3136 3138 3139 3141 3142 3144 3146 3147 3149 3151 3153 3154 3155 3157 3157 3158 3158 3158 3159 3160 3162 3162 3163
3126 3126 3127 3128 3128 3128 3128 3128 3127 3127 3126 3126 3126 3125 3124 3124 3123 3123 3122 3122 3121 3121 3122 3121 3122 3122 3123 3123 3123 3123 3124 3125 3125 3125 3124 3125 3125 3125 3125 3125 3125 3125 3127 3130 3131 3130 3131 3132 3133 3135 3135 3135 3135 3134 3134 3133 3132 3132 3133 3134 3134 3135 3135 3135 3136 3138 3139 3140 3143 3145 3147 3149 3151 3152 3153 3154 3155 3156 3157 3157 3158 3159 3160 3161 3161
3125 3125 3126 3127 3127 3127 3127 3127 3126 3126 3126 3125 3125 3124 3124 3123 3122 3122 3121 3121 3121 3121 3121 3121 3121 3121 3122 3122 3122 3122 3123 3123 3123 3123 3123 3123 3123 3123 3123 3124 3124 3124 3125 3127 3129 3129 3130 3131 3131 3132 3132 3133 3133 3133 3133 3133 3132 3132 3132 3133 3134 3135 3135 3135 3136 3138 3137 3138 3140 3143 3145 3147 3149 3150 3151 3152 3153 3154 3155 3156 3156 3157 3158 3159 3159
3124 3124 3125 3126 3126 3126 3126 3126 3125 3125 3125 3125 3124 3124 3123 3123 3122 3122 3121 3121 3120 3120 3120 3120 3120 3121 3121 3121 3121 3121 3121 3122 3122 3122 3122 3121 3122 3122 3122 3122 3123 3123 3123 3124 3125 3126 3128 3129 3129 3129 3130 3131 3132 3132 3133 3133 3132 3132 3132 3132 3133 3134 3135 3135 3136 3137 3137 3137 3139 3141 3143 3145 3146 3147 3148 3150 3151 3152 3153 3154 3155 3156 3156 3157 3157
3122 3123 3124 3124 3125 3125 3125 3125 3125 3124 3124 3124 3124 3124 3123 3123 3122 3122 3121 3121 3120 3120 3120 3120 3120 3120 3120 3121 3121 3120 3120 3120 3120 3120 3120 3121 3121 3121 3121 3121 3121 3122 3122 3122 3123 3124 3125 3127 3127 3127 3128 3129 3130 3131 3131 3131 3131 3131 3132 3132 3133 3133 3134 3135 3135 3136 3136 3136 3137 3138 3140 3142 3144 3145 3146 3147 3149 3150 3151 3152 3152 3153 3154 3155 3155
3121 3121 3122 3123 3124 3124 3125 3124 3124 3124 3124 3124 3124 3123 3123 3123 3122 3122 3121 3121 3121 3120 3120 3120 3120 3120 3120 3120 3120 3120 3120 3120 3119 3119 3120 3120 3120 3120 3120 3120 3120 3120 3121 3121 3122 3122 3123 3124 3125 3125 3125 3126 3128 3128 3129 3129 3129 3130 3131 3132 3132 3132 3133 3134 3134 3135 3135 3135 3136 3136 3137 3138 3139 3141 3143 3145 3147 3148 3148 3149 3150 3151 3152 3153 3154
3119 3120 3121 3122 3123 3123 3123 3123 3123 3123 3123 3123 3123 3123 3122 3122 3122 3122 3121 3121 3121 3120 3120 3120 3120 3120 3120 3120 3120 3120 3120 3119 3119 3119 3119 3119 3119 3119 3119 3119 3119 3119 3119 3120 3120 3121 3122 3123 3123 3123 3123 3124 3126 3126 3127 3127 3128 3128 3129 3130 3131 3131 3132 3133 3133 3133 3134 3134 3134 3135 3136 3136 3136 3138 3140 3142 3143 3144 3145 3146 3147 3149 3149 3150 3151
3117 3118 3119 3121 3122 3122 3122 3122 3122 3123 3123 3123 3123 3122 3122 3122 3122 3122 3121 3121 3121 3120 3120 3120 3120 3120 3120 3120 3120 3120 3119 3119 3119 3119 3119 3119 3118 3118 3118 3118 3118 3118 3118 3119 3119 3119 3120 3121 3121 3122 3122 3123 3124 3124 3125 3125 3126 3126 3128 3129 3129 3129 3130 3131 3131 3132 3132 3131 3132 3133 3134 3135 3136 3137 3138 3139 3140 3141 3142 3143 3144 3146 3146 3147 3149
3115 3117 3118 3119 3120 3120 3121 3121 3121 3122 3122 3122 3122 3122 3121 3121 3121 3122 3121 3121 3121 3120 3120 3120 3120 3120 3120 3120 3120 3119 3119 3119 3119 3119 3118 3118 3118 3118 3118 3118 3117 3117 3118 3118 3118 3118 3119 3119 3120 3120 3121 3121 3122 3123 3123 3124 3124 3125 3126 3127 3127 3127 3128 3129 3129 3130 3130 3130 3130 3132 3133 3133 3134 3136 3137 3138 3139 3139 3140 3141 3142 3143 3144 3145 3146
3113 3115 3116 3117 3118 3119 3120 3120 3120 3121 3121 3121 3121 3121 3121 3121 3121 3121 3121 3121 3121 3120 3120 3120 3120 3120 3120 3120 3119 3119 3119 3119 3118 3118 3118 3118 3118 3118 3118 3117 3117 3117 3117 3117 3117 3118 3118 3118 3119 3119 3120 3120 3121 3122 3122 3122 3123 3123 3124 3125 3125 3126 3126 3127 3128 3128 3129 3129 3129 3130 3131 3131 3133 3135 3136 3137 3137 3138 3138 3139 3140 3140 3141 3143 3144
3111 3112 3114 3116 3117 3118 3118 3118 3119 3120 3120 3120 3120 3120 3120 3120 3120 3121 3121 3121 3121 3121 3120 3120 3120 3120 3120 3119 3119 3119 3118 3118 3118 3118 3118 3117 3117 3117 3117 3117 3117 3117 3117 3117 3117 3117 3118 3118 3118 3119 3119 3119 3120 3120 3121 3121 3121 3122 3123 3123 3123 3124 3124 3125 3126 3126 3127 3128 3129 3130 3130 3131 3132 3133 3134 3134 3135 3136 3137 3137 3138 3138 3139 3140 3141
3109 3110 3111 3114 3115 3116 3117 3117 3117 3118 3119 3119 3119 3120 3120 3120 3120 3120 3120 3120 3120 3120 3120 3120 3120 3120 3120 3119 3119 3119 3118 3118 3117 3117 3117 3117 3117 3117 3117 3117 3117 3117 3117 3117 3117 3117 3117 3118 3118 3118 3119 3119 3119 3119 3120 3120 3120 3121 3121 3121 3122 3122 3123 3123 3123 3124 3126 3126 3127 3128 3129 3130 3131 3132 3132 3133 3133 3134 3135 3135 3135 3136 3137 3138 3139
3108 3108 3109 3111 3113 3114 3115 3116 3116 3117 3118 3118 3118 3119 3119 3119 3119 3119 3120 3120 3120 3120 3120 3120 3120 3120 3120 3119 3119 3119 3118 3118 3117 3117 3117 3117 3117 3117 3117 3117 3117 3117 3117 3117 3117 3117 3118 3118 3118 3118 3118 3118 3119 3119 3119 3120 3120 3120 3121 3121 3121 3121 3121 3121 3121 3122 3123 3124 3125 3125 3126 3127 3128 3129 3130 3130 3131 3132 3132 3133 3133 3134 3135 3136 3137